SL-14 DEB, 45319

Orbit data source: Space-Track

SL-14 DEB, 45319 is space debris in LEO originally from a launch on Thu, 15 Aug 1991 UTC launched from the Plesetsk Missile And Space Complex (PKMTR). Debris objects in space refer to the collection of defunct objects orbiting the Earth. Examples of debris include non-operational satellites, rocket bodies, and fragments generated from explosions, collisions, or faulty payload assembly.

Loading next visibility...
Identifier
45319, 1991-056BH
Orbit
LEO
Country
Flag of CISCIS
Related business
Manufacturer
Unknown
Mission
Spacecraft
Bus & Motor
Unknown
Mass
Unknown
Launch date (UTC)
1991-08-15 (34 years ago)
Launch vehicle
Unknown
Launch site
Plesetsk Missile And Space Complex (PKMTR)
Object type
Payload
Rocket body
Debris
Shape & HBR
Unknown shape, 0.1 m
Radar Cross Section
Small (<0.1 m²)

Expand to show TLE details & history
Last TLE update: 2 days ago

TLE from 2 days ago
0 SL-14 DEB
1 45319U 91056BH  26033.83759612  .00001428  00000-0  25747-2 0  9990
2 45319  82.5816 188.0238 0088620 210.4424 149.1549 13.39195318289268
Epoch: 2026-02-02T20:06Z
TLE epoch observation values (Epoch: 2026-02-02T20:06:08.304Z)
Latitude
-0.00011°
Longitude
113.46204°
Altitude
1,172.272 km
Speed
7.239 km/s
True Right ascension
12h 32m 05s
True Declination
0° 00' 00"
Sunlit
Object was in full shadow at epoch
Visualization orbit readout
Latitude
Unknown
Longitude
Unknown
Altitude
Unknown
Speed
Unknown
Apparent Right ascension
Unknown
Apparent Declination
Unknown
Sunlit
N/A
Visualization observer readout
Local Sidereal Time
03:54:39
Azimuth
Unknown
Elevation
Unknown
Doppler factor
Unknown
Orbital elements
Apogee altitude
1,175.846 km
Perigee altitude
1,043.135 km
Semi-major axis
7,487.627 km
Eccentricity
0.00886
Inclination
82.5816°
RAAN
188.0238°
Arg. of periapsis
210.4424°
True anomaly
149.67066°
Mean anomaly
149.1549°
Eccentric anomaly
149.41327°
Mean motion
3.34986 °/min
Orbital period
107.47 mins
BSTAR
0.0025747
Loading maneuver chart data...
Computing Atmospheric mass density...
Loading historical data...
Loading historical data...
Loading historical data...
Loading historical data...
Loading historical data...
Loading historical data...
Loading historical data...

Documentation

Showing up to 5 results
|